Regional Weather Roundup
Issued by NWS

Home | Current Version | Previous Version | Text Only | Print | Product List | Glossary Off
Versions: 1 2 3 4 5 6 7 8 9 10 11 12 13 14 15 16 17 18 19 20 21 22 23 24 25 26 27 28 29 30 31 32 33 34 35 36 37 38 39 40 41 42 43 44 45 46 47 48 49 50

000
ASUS43 KFSD 191202
RWRSD

WEATHER ROUNDUP FOR SOUTH DAKOTA
NATIONAL WEATHER SERVICE SIOUX FALLS SD
700 AM CDT THU OCT 19 2017

NOTE: "FAIR" INDICATES FEW OR NO CLOUDS BELOW 12,000 FEET WITH NO
SIGNIFICANT WEATHER AND/OR OBSTRUCTIONS TO VISIBILITY.


SDZ001>005-009-010-012>017-191300-
NORTHWEST AND NORTH CENTRAL SOUTH DAKOTA

CITY           SKY/WX    TMP DP  RH WIND       PRES   REMARKS
BUFFALO          N/A     43  27  53 SW5       29.77S
FAITH            N/A     45  31  58 S8        29.83R
MOBRIDGE       PTCLDY    47  37  68 S12       29.82F
$$

SDZ012>016-024>037-041>051-057-063-072>074-191300-
SOUTHWEST AND SOUTH CENTRAL SOUTH DAKOTA

CITY           SKY/WX    TMP DP  RH WIND       PRES   REMARKS
RAPID CTY ARPT CLOUDY    43  26  51 E5        29.87S
PIERRE         CLOUDY    46  36  68 SE13      29.88F
CUSTER         CLOUDY    53  13  20 W9        29.97S
ELLSWORTH AFB  CLOUDY    50  25  37 S6        29.85F
PHILIP         CLOUDY    55  35  47 SW13      29.86S
PINE RIDGE     CLOUDY    51  33  50 S12       29.94F
SPEARFISH      FAIR      55  19  24 CALM      29.89R
WINNER         FAIR      55  35  47 S25G32    29.93F
$$

SDZ004>011-016>023-039-040-191300-
NORTHEAST SOUTH DAKOTA

CITY           SKY/WX    TMP DP  RH WIND       PRES   REMARKS
ABERDEEN       CLOUDY    39  31  72 S9        29.91F
WATERTOWN      CLOUDY    40  33  76 SE9       29.97F
BROOKINGS      CLOUDY    42  30  62 S9        30.02F
SISSETON         N/A     40  32  73 SE7       29.91F
$$

SDZ017-020-022-023-036>040-048>070-191300-
SOUTHEAST SOUTH DAKOTA

CITY           SKY/WX    TMP DP  RH WIND       PRES   REMARKS
SIOUX FALLS    PTCLDY    38  35  89 CALM      30.03F
HURON          CLOUDY    41  31  67 S10       29.97S
CHAMBERLAIN    CLEAR     48  38  66 S9        29.96S
MITCHELL       CLOUDY    38  31  76 SE6       29.99F
YANKTON        CLOUDY    40  37  89 CALM      30.03S
$$

ABBREVIATIONS USED IN REMARKS
   TC - TEMPERATURE IN CELSIUS
  WCI - WIND CHILL INDEX
   HX - HEAT INDEX
  VSB - VISIBILITY





USA.gov is the U.S. government's official web portal to all federal, state and local government web resources and services.